Location: Bogis-Bossey
(46.3500°N, 6.1667°E)
Time: 18:47:09
(UTC+00:00)

USA 238 DEB - Pass Details

Date: 03 March 2024
Orbit: 926 x 1285 km, 63.4° (Epoch: 21 April)

Event Time Altitude Azimuth Distance (km) Brightness Sun altitude
Exits shadow 01:23:41 16° 74° (ENE) 2,400 5.9 -45.2°
Drops below altitude 10° 01:25:21 10° 62° (ENE) 2,819 6.4 -45.1°
Sets 01:28:40 0° 48° (NE) 3,839 7.4 -44.7°
